When you browse on this site, cookies collect data to enhance your experience and personalize the content and advertising you see.
Visit our Privacy Policy to learn more. By continuing to use the site, you agree to this use of cookies and data.
  • Em Portugal
  • Lista de países
  • Para 7 dias
  • Temperatura da água
  • Mapa do tempo
  • Widgets de tempo
  • user-avatar
    Iniciar Sessão

    Previsão horária em Irset

    Hoje, 25 Maio, Segunda-feira

    Tempo Temperatura Precipitação Vento Pressão Humidade
    00:00 +5°C° 0 mm 3 m/s 749 mmHg 93%
    01:00 +5°C° 0 mm 3 m/s 749 mmHg 93%
    02:00 +4°C° 0 mm 3 m/s 749 mmHg 93%
    03:00 +5°C° 0 mm 2 m/s 749 mmHg 94%
    04:00 +6°C° 0 mm 2 m/s 750 mmHg 93%
    05:00 +7°C° 0 mm 2 m/s 750 mmHg 92%
    06:00 +7°C° 0 mm 3 m/s 750 mmHg 91%
    07:00 +9°C° 0 mm 3 m/s 751 mmHg 85%
    08:00 +11°C° 0 mm 3 m/s 751 mmHg 80%
    09:00 +12°C° 0 mm 3 m/s 752 mmHg 74%
    10:00 +13°C° 0.2 mm 3 m/s 752 mmHg 70%
    11:00 +14°C° 0.2 mm 4 m/s 752 mmHg 67%
    12:00 +15°C° 0.2 mm 4 m/s 752 mmHg 63%
    13:00 +15°C° 0 mm 4 m/s 752 mmHg 61%
    14:00 +17°C° 0 mm 3 m/s 752 mmHg 58%
    15:00 +17°C° 0 mm 3 m/s 752 mmHg 56%
    16:00 +17°C° 0.1 mm 2 m/s 753 mmHg 61%
    17:00 +16°C° 0.1 mm 2 m/s 753 mmHg 66%
    18:00 +16°C° 0.1 mm 2 m/s 753 mmHg 71%
    19:00 +14°C° 0 mm 1 m/s 753 mmHg 74%
    20:00 +13°C° 0 mm 1 m/s 754 mmHg 77%
    21:00 +10°C° 0 mm 0 m/s 754 mmHg 80%
    22:00 +10°C° 0 mm 1 m/s 754 mmHg 80%
    23:00 +10°C° 0 mm 1 m/s 754 mmHg 81%

    Amanhã, 26 Maio, Terça-feira

    Tempo Temperatura Precipitação Vento Pressão Humidade
    00:00 +10°C° 0 mm 1 m/s 754 mmHg 82%
    01:00 +10°C° 0 mm 1 m/s 755 mmHg 82%
    02:00 +10°C° 0 mm 1 m/s 755 mmHg 82%
    03:00 +9°C° 0 mm 0 m/s 755 mmHg 83%
    04:00 +10°C° 0 mm 1 m/s 755 mmHg 83%
    05:00 +11°C° 0 mm 1 m/s 755 mmHg 83%
    06:00 +12°C° 0 mm 1 m/s 755 mmHg 83%
    07:00 +13°C° 0 mm 2 m/s 755 mmHg 80%
    08:00 +14°C° 0 mm 2 m/s 755 mmHg 77%
    09:00 +14°C° 0 mm 3 m/s 755 mmHg 74%
    10:00 +16°C° 0 mm 3 m/s 755 mmHg 70%
    11:00 +17°C° 0 mm 3 m/s 754 mmHg 66%
    12:00 +18°C° 0 mm 4 m/s 754 mmHg 62%
    13:00 +17°C° 0.1 mm 4 m/s 754 mmHg 66%
    14:00 +17°C° 0.1 mm 4 m/s 753 mmHg 70%
    15:00 +15°C° 0.1 mm 4 m/s 753 mmHg 73%
    16:00 +15°C° 0.1 mm 4 m/s 753 mmHg 76%
    17:00 +14°C° 0.1 mm 4 m/s 752 mmHg 79%
    18:00 +14°C° 0.1 mm 4 m/s 752 mmHg 82%
    19:00 +13°C° 0.2 mm 5 m/s 751 mmHg 83%
    20:00 +13°C° 0.2 mm 5 m/s 751 mmHg 84%
    21:00 +13°C° 0.2 mm 5 m/s 751 mmHg 85%
    22:00 +12°C° 0 mm 5 m/s 750 mmHg 86%
    23:00 +12°C° 0 mm 5 m/s 749 mmHg 87%

    Depois de amanhã, 27 Maio, Quarta-feira

    Tempo Temperatura Precipitação Vento Pressão Humidade
    00:00 +11°C° 0 mm 4 m/s 749 mmHg 87%
    01:00 +10°C° 0.2 mm 5 m/s 748 mmHg 88%
    02:00 +10°C° 0.2 mm 5 m/s 747 mmHg 88%
    03:00 +9°C° 0.2 mm 5 m/s 747 mmHg 88%
    04:00 +9°C° 3.1 mm 6 m/s 746 mmHg 91%
    05:00 +9°C° 3.1 mm 7 m/s 746 mmHg 93%
    06:00 +7°C° 3.1 mm 8 m/s 746 mmHg 95%
    07:00 +9°C° 0.6 mm 7 m/s 746 mmHg 93%
    08:00 +9°C° 0.6 mm 7 m/s 746 mmHg 92%
    09:00 +10°C° 0.6 mm 6 m/s 746 mmHg 90%
    10:00 +10°C° 0 mm 6 m/s 747 mmHg 90%
    11:00 +10°C° 0 mm 5 m/s 747 mmHg 90%
    12:00 +10°C° 0 mm 5 m/s 747 mmHg 90%
    13:00 +11°C° 0 mm 4 m/s 747 mmHg 89%
    14:00 +12°C° 0 mm 4 m/s 748 mmHg 88%
    15:00 +12°C° 0 mm 4 m/s 748 mmHg 87%
    16:00 +12°C° 0 mm 3 m/s 748 mmHg 88%
    17:00 +11°C° 0 mm 3 m/s 748 mmHg 89%
    18:00 +11°C° 0 mm 3 m/s 748 mmHg 90%
    19:00 +11°C° 0 mm 3 m/s 749 mmHg 91%
    20:00 +10°C° 0 mm 2 m/s 749 mmHg 92%
    21:00 +9°C° 0 mm 2 m/s 749 mmHg 94%
    22:00 +9°C° 0 mm 2 m/s 749 mmHg 95%
    23:00 +8°C° 0 mm 2 m/s 749 mmHg 96%

    28 Maio, Quinta-feira

    Tempo Temperatura Precipitação Vento Pressão Humidade
    00:00 +7°C° 0 mm 2 m/s 749 mmHg 97%
    01:00 +7°C° 0 mm 2 m/s 749 mmHg 97%
    02:00 +7°C° 0 mm 2 m/s 749 mmHg 97%
    03:00 +6°C° 0 mm 2 m/s 749 mmHg 97%
    04:00 +7°C° 0 mm 2 m/s 749 mmHg 95%
    05:00 +8°C° 0 mm 2 m/s 750 mmHg 93%
    06:00 +10°C° 0 mm 1 m/s 750 mmHg 92%
    07:00 +12°C° 0 mm 1 m/s 750 mmHg 86%
    08:00 +14°C° 0 mm 1 m/s 750 mmHg 80%
    09:00 +15°C° 0 mm 1 m/s 750 mmHg 74%
    10:00 +18°C° 0 mm 1 m/s 750 mmHg 70%
    11:00 +19°C° 0 mm 1 m/s 750 mmHg 66%
    12:00 +20°C° 0 mm 1 m/s 750 mmHg 62%
    13:00 +20°C° 0 mm 1 m/s 750 mmHg 61%
    14:00 +21°C° 0 mm 1 m/s 749 mmHg 60%
    15:00 +21°C° 0 mm 1 m/s 749 mmHg 59%
    16:00 +21°C° 0 mm 1 m/s 749 mmHg 63%
    17:00 +20°C° 0 mm 1 m/s 749 mmHg 67%
    18:00 +20°C° 0 mm 1 m/s 749 mmHg 72%
    19:00 +17°C° 0 mm 2 m/s 749 mmHg 76%
    20:00 +16°C° 0 mm 2 m/s 749 mmHg 81%
    21:00 +13°C° 0 mm 3 m/s 749 mmHg 86%
    22:00 +13°C° 0 mm 3 m/s 749 mmHg 87%
    23:00 +12°C° 0 mm 3 m/s 749 mmHg 89%

    29 Maio, Sexta-feira

    Tempo Temperatura Precipitação Vento Pressão Humidade
    00:00 +12°C° 0 mm 3 m/s 749 mmHg 90%
    01:00 +12°C° 0 mm 4 m/s 749 mmHg 90%
    02:00 +11°C° 0 mm 4 m/s 749 mmHg 91%
    03:00 +11°C° 0 mm 4 m/s 749 mmHg 91%
    04:00 +12°C° 0 mm 4 m/s 749 mmHg 90%
    05:00 +13°C° 0 mm 4 m/s 749 mmHg 89%
    06:00 +13°C° 0 mm 4 m/s 749 mmHg 88%
    07:00 +15°C° 0 mm 5 m/s 749 mmHg 84%
    08:00 +16°C° 0 mm 5 m/s 749 mmHg 80%
    09:00 +17°C° 0 mm 5 m/s 749 mmHg 77%
    10:00 +19°C° 0 mm 5 m/s 748 mmHg 74%
    11:00 +21°C° 0 mm 5 m/s 748 mmHg 72%
    12:00 +22°C° 0 mm 5 m/s 748 mmHg 69%
    13:00 +22°C° 0 mm 5 m/s 748 mmHg 68%
    14:00 +23°C° 0 mm 5 m/s 748 mmHg 68%
    15:00 +23°C° 0 mm 5 m/s 747 mmHg 67%
    16:00 +22°C° 0 mm 5 m/s 747 mmHg 71%
    17:00 +22°C° 0 mm 4 m/s 747 mmHg 74%
    18:00 +21°C° 0 mm 4 m/s 747 mmHg 78%
    19:00 +20°C° 0 mm 4 m/s 747 mmHg 82%
    20:00 +18°C° 0 mm 4 m/s 747 mmHg 86%
    21:00 +15°C° 0 mm 4 m/s 747 mmHg 91%
    22:00 +15°C° 0 mm 4 m/s 747 mmHg 92%
    23:00 +14°C° 0 mm 4 m/s 747 mmHg 92%

    30 Maio, Sábado

    Tempo Temperatura Precipitação Vento Pressão Humidade
    00:00 +13°C° 0 mm 4 m/s 747 mmHg 93%
    01:00 +13°C° 0 mm 3 m/s 747 mmHg 94%
    02:00 +13°C° 0 mm 3 m/s 747 mmHg 94%
    03:00 +12°C° 0 mm 3 m/s 747 mmHg 95%
    04:00 +13°C° 0 mm 4 m/s 747 mmHg 93%
    05:00 +14°C° 0 mm 4 m/s 746 mmHg 90%
    06:00 +14°C° 0 mm 5 m/s 746 mmHg 88%
    07:00 +16°C° 0 mm 5 m/s 746 mmHg 82%
    08:00 +17°C° 0 mm 5 m/s 746 mmHg 77%
    09:00 +19°C° 0 mm 6 m/s 746 mmHg 72%
    10:00 +20°C° 0 mm 6 m/s 746 mmHg 69%
    11:00 +22°C° 0 mm 7 m/s 745 mmHg 66%
    12:00 +23°C° 0 mm 7 m/s 745 mmHg 64%
    13:00 +23°C° 0 mm 7 m/s 745 mmHg 64%
    14:00 +24°C° 0 mm 7 m/s 744 mmHg 65%
    15:00 +24°C° 0 mm 7 m/s 744 mmHg 65%
    16:00 +24°C° 0 mm 6 m/s 743 mmHg 69%
    17:00 +23°C° 0 mm 5 m/s 743 mmHg 74%
    18:00 +23°C° 0 mm 5 m/s 743 mmHg 78%
    19:00 +22°C° 0 mm 5 m/s 743 mmHg 80%
    20:00 +22°C° 0 mm 5 m/s 742 mmHg 83%
    21:00 +21°C° 0 mm 6 m/s 742 mmHg 86%
    22:00 +20°C° 0.2 mm 6 m/s 741 mmHg 88%
    23:00 +20°C° 0.2 mm 6 m/s 741 mmHg 90%
    Mostrar mais